Location: Waco, TX
(31.5480°N, 97.1670°W)
Time: 16:13:56
(UTC-05:00)

ISS - Pass Details

Date: 13 September 2019
Orbit: 411 x 421 km, 51.6° (Epoch: 17 September)

Event Time Altitude Azimuth Distance (km) Brightness Sun altitude
Rises 21:18:51 0° 182° (S) 2,324 - -22.0°
Reaches altitude 10° 21:21:57 10° 150° (SSE) 1,467 - -22.6°
Maximum altitude 21:23:19 12° 126° (SE) 1,346 - -22.9°
Drops below altitude 10° 21:24:42 10° 101° (E) 1,471 - -23.2°
Sets 21:27:48 0° 69° (ENE) 2,337 - -23.8°
